THY4QJ LTFM-EDDK

Flight info

Callsign THY4QJ
Flight time 2h 48m
Altitude 36000
Route TUDBU1E/36 TUDBU Q26 ETUBA DCT NAVOD DCT PANZU DCT BACAM DCT SODGO DCT DIDIX DCT INVED DCT ARSIN DCT DEXIT DCT RODIS L604 MASEK T841 ERNEP ERNEP1B
Aircraft B738/M-SDE2E3FGHIRWY/LB1

Departure

Time 2026-05-06 16:39
Airport İstanbul Airport (LTFM)

Arrival

Time 2026-05-06 19:27
Airport Cologne Bonn Airport (EDDK)
Time Latitude Longitude Altitude Speed Heading
2026-05-06 16:03 41.26440 28.74658 333 ft 0 kts 107°
2026-05-06 16:28 41.26440 28.74656 333 ft 2 kts 107°
2026-05-06 16:28 41.26447 28.74624 331 ft 4 kts 99°
2026-05-06 16:29 41.26447 28.74590 329 ft 4 kts 69°
2026-05-06 16:29 41.26436 28.74570 330 ft 1 kts 17°
2026-05-06 16:33 41.26437 28.74571 330 ft 1 kts 17°
2026-05-06 16:33 41.26461 28.74581 330 ft 7 kts 17°
2026-05-06 16:33 41.26525 28.74607 333 ft 12 kts 17°
2026-05-06 16:34 41.26687 28.74614 330 ft 12 kts 359°
2026-05-06 16:34 41.26769 28.74612 329 ft 12 kts 359°
2026-05-06 16:34 41.26855 28.74611 332 ft 13 kts 359°
2026-05-06 16:34 41.26947 28.74611 331 ft 13 kts 11°
2026-05-06 16:35 41.26975 28.74713 331 ft 13 kts 88°
2026-05-06 16:35 41.26977 28.74828 333 ft 12 kts 89°
2026-05-06 16:35 41.26978 28.74943 333 ft 13 kts 89°
2026-05-06 16:35 41.26980 28.75078 333 ft 16 kts 88°
2026-05-06 16:36 41.26982 28.75221 331 ft 15 kts 89°
2026-05-06 16:36 41.26971 28.75355 331 ft 15 kts 130°
2026-05-06 16:36 41.26876 28.75377 331 ft 14 kts 179°
2026-05-06 16:36 41.26781 28.75379 331 ft 13 kts 180°
2026-05-06 16:37 41.26685 28.75381 333 ft 14 kts 179°
2026-05-06 16:37 41.26579 28.75383 332 ft 17 kts 179°
2026-05-06 16:37 41.26453 28.75393 331 ft 18 kts 159°
2026-05-06 16:37 41.26425 28.75545 331 ft 18 kts 89°
2026-05-06 16:38 41.26477 28.75662 333 ft 17 kts
2026-05-06 16:38 41.26639 28.75659 332 ft 46 kts 359°
2026-05-06 16:38 41.27208 28.75649 330 ft 115 kts 360°
2026-05-06 16:38 41.28186 28.75620 432 ft 158 kts 358°
2026-05-06 16:39 41.29311 28.75539 1056 ft 166 kts
2026-05-06 16:39 41.30381 28.75994 1802 ft 165 kts 41°
2026-05-06 16:39 41.31184 28.77162 2328 ft 180 kts 39°
2026-05-06 16:39 41.32361 28.77957 2648 ft 199 kts 14°
2026-05-06 16:40 41.33678 28.78770 2919 ft 222 kts 30°
2026-05-06 16:40 41.35018 28.79884 3232 ft 237 kts 29°
2026-05-06 16:40 41.36515 28.81082 3549 ft 259 kts 27°
2026-05-06 16:40 41.38082 28.82222 4271 ft 260 kts 17°
2026-05-06 16:41 41.39832 28.82431 5165 ft 251 kts 352°
2026-05-06 16:41 41.41568 28.82201 5978 ft 253 kts 353°
2026-05-06 16:41 41.43345 28.81967 6644 ft 259 kts 353°
2026-05-06 16:41 41.45141 28.81733 7370 ft 260 kts 353°
2026-05-06 16:42 41.46951 28.81500 8128 ft 262 kts 353°
2026-05-06 16:42 41.48771 28.81270 8868 ft 264 kts 353°
2026-05-06 16:42 41.50613 28.81040 9612 ft 266 kts 354°
2026-05-06 16:42 41.52468 28.80810 10286 ft 271 kts 354°
2026-05-06 16:43 41.54417 28.80568 10481 ft 293 kts 354°
2026-05-06 16:43 41.56515 28.80308 10643 ft 313 kts 354°
2026-05-06 16:43 41.58744 28.79929 10838 ft 331 kts 345°
2026-05-06 16:43 41.60820 28.78541 11311 ft 340 kts 322°
2026-05-06 16:44 41.62433 28.76209 11934 ft 348 kts 304°
2026-05-06 16:44 41.63445 28.73237 12563 ft 354 kts 294°
2026-05-06 16:44 41.64316 28.70137 13199 ft 359 kts 293°
2026-05-06 16:44 41.65202 28.67003 13882 ft 362 kts 294°
2026-05-06 16:45 41.66111 28.63853 14513 ft 364 kts 294°
2026-05-06 16:45 41.66953 28.60638 15148 ft 370 kts 285°
2026-05-06 16:45 41.67127 28.57166 15786 ft 378 kts 272°
2026-05-06 16:45 41.67097 28.53642 16429 ft 381 kts 274°
2026-05-06 16:46 41.67113 28.50081 17030 ft 385 kts 274°
2026-05-06 16:46 41.67214 28.46497 17631 ft 386 kts 282°
2026-05-06 16:46 41.68018 28.43117 18219 ft 381 kts 298°
2026-05-06 16:46 41.69126 28.39883 18800 ft 384 kts 297°
2026-05-06 16:47 41.70228 28.36619 19342 ft 386 kts 297°
2026-05-06 16:47 41.71324 28.33327 19894 ft 388 kts 297°
2026-05-06 16:47 41.72413 28.30021 20441 ft 390 kts 297°
2026-05-06 16:47 41.73504 28.26687 20985 ft 392 kts 297°
2026-05-06 16:48 41.74596 28.23334 21506 ft 394 kts 297°
2026-05-06 16:48 41.75678 28.20004 22008 ft 397 kts 297°
2026-05-06 16:48 41.76782 28.16603 22516 ft 399 kts 297°
2026-05-06 16:48 41.77891 28.13186 23004 ft 401 kts 297°
2026-05-06 16:49 41.79006 28.09748 23485 ft 403 kts 297°
2026-05-06 16:49 41.80355 28.06472 23896 ft 401 kts 308°
2026-05-06 16:49 41.82036 28.03491 24306 ft 402 kts 311°
2026-05-06 16:49 41.83769 28.00542 24681 ft 404 kts 311°
2026-05-06 16:50 41.85508 27.97570 25064 ft 406 kts 310°
2026-05-06 16:50 41.87238 27.94565 25443 ft 408 kts 310°
2026-05-06 16:50 41.88960 27.91529 25822 ft 410 kts 310°
2026-05-06 16:50 41.90123 27.89463 26073 ft 411 kts 310°
2026-05-06 16:51 41.92406 27.85388 26546 ft 414 kts 310°
2026-05-06 16:51 41.94138 27.82291 26880 ft 415 kts 310°
2026-05-06 16:51 41.95875 27.79182 27222 ft 417 kts 310°
2026-05-06 16:51 41.97680 27.76121 27540 ft 418 kts 314°
2026-05-06 16:52 41.99660 27.73264 27871 ft 418 kts 317°
2026-05-06 16:52 42.01723 27.70492 28195 ft 420 kts 317°
2026-05-06 16:52 42.03812 27.67737 28508 ft 422 kts 318°
2026-05-06 16:52 42.05906 27.64967 28807 ft 423 kts 317°
2026-05-06 16:53 42.07994 27.62171 29176 ft 423 kts 317°
2026-05-06 16:53 42.10074 27.59357 29533 ft 424 kts 317°
2026-05-06 16:53 42.12140 27.56536 29928 ft 423 kts 316°
2026-05-06 16:53 42.14194 27.53716 30375 ft 420 kts 317°
2026-05-06 16:54 42.16229 27.50911 30768 ft 418 kts 317°
2026-05-06 16:54 42.18261 27.48107 31072 ft 418 kts 316°
2026-05-06 16:54 42.20294 27.45299 31371 ft 418 kts 316°
2026-05-06 16:54 42.22322 27.42495 31707 ft 417 kts 316°
2026-05-06 16:55 42.24343 27.39697 32069 ft 416 kts 316°
2026-05-06 16:55 42.26361 27.36902 32384 ft 415 kts 316°
2026-05-06 16:55 42.28361 27.34130 32695 ft 414 kts 316°
2026-05-06 16:55 42.30365 27.31349 33047 ft 413 kts 316°
2026-05-06 16:56 42.32364 27.28572 33379 ft 411 kts 316°
2026-05-06 16:56 42.34355 27.25804 33709 ft 410 kts 316°
2026-05-06 16:56 42.36341 27.23039 34038 ft 409 kts 316°
2026-05-06 16:56 42.38321 27.20281 34313 ft 408 kts 316°
2026-05-06 16:57 42.40298 27.17526 34508 ft 409 kts 316°
2026-05-06 16:57 42.42270 27.14773 34818 ft 405 kts 316°
2026-05-06 16:57 42.44222 27.12045 35201 ft 402 kts 316°
2026-05-06 16:58 42.48116 27.06600 35388 ft 408 kts 316°
2026-05-06 16:58 42.50094 27.03829 35560 ft 409 kts 316°
2026-05-06 16:58 42.52069 27.01060 35788 ft 408 kts 316°
2026-05-06 16:58 42.54038 26.98294 36015 ft 408 kts 316°
2026-05-06 16:59 42.56015 26.95517 36038 ft 411 kts 316°
2026-05-06 16:59 42.59980 26.89937 36043 ft 409 kts 316°
2026-05-06 17:00 42.63893 26.84418 36041 ft 403 kts 316°
2026-05-06 17:00 42.67768 26.78945 36048 ft 401 kts 316°
2026-05-06 17:01 42.70974 26.74407 36055 ft 400 kts 316°
2026-05-06 17:01 42.74827 26.68946 36067 ft 400 kts 316°
2026-05-06 17:02 42.78677 26.63477 36041 ft 401 kts 316°
2026-05-06 17:02 42.82356 26.57767 36036 ft 404 kts 306°
2026-05-06 17:03 42.85411 26.51329 36021 ft 405 kts 306°
2026-05-06 17:03 42.88450 26.44886 35989 ft 404 kts 306°
2026-05-06 17:04 42.91498 26.38450 36030 ft 404 kts 306°
2026-05-06 17:04 42.94559 26.31998 36022 ft 406 kts 306°
2026-05-06 17:05 42.97633 26.25512 36020 ft 408 kts 306°
2026-05-06 17:05 43.00717 26.18990 35988 ft 409 kts 305°
2026-05-06 17:06 43.03804 26.12447 35989 ft 410 kts 305°
2026-05-06 17:06 43.06896 26.05879 35969 ft 411 kts 305°
2026-05-06 17:07 43.09970 25.99333 35966 ft 412 kts 305°
2026-05-06 17:07 43.13063 25.92732 35962 ft 412 kts 305°
2026-05-06 17:08 43.16154 25.86122 35957 ft 412 kts 304°
2026-05-06 17:08 43.19236 25.79517 35962 ft 411 kts 304°
2026-05-06 17:09 43.22304 25.72926 35966 ft 410 kts 304°
2026-05-06 17:09 43.25359 25.66348 35967 ft 409 kts 304°
2026-05-06 17:10 43.28406 25.59774 35965 ft 408 kts 304°
2026-05-06 17:10 43.31445 25.53201 35965 ft 407 kts 304°
2026-05-06 17:11 43.34477 25.46630 35957 ft 407 kts 304°
2026-05-06 17:11 43.37501 25.40060 35960 ft 407 kts 304°
2026-05-06 17:12 43.40521 25.33485 35950 ft 407 kts 304°
2026-05-06 17:12 43.43540 25.26898 35957 ft 407 kts 304°
2026-05-06 17:13 43.46556 25.20302 35953 ft 408 kts 304°
2026-05-06 17:13 43.49576 25.13681 35954 ft 408 kts 304°
2026-05-06 17:14 43.52596 25.07048 35946 ft 409 kts 303°
2026-05-06 17:14 43.55617 25.00396 35953 ft 410 kts 303°
2026-05-06 17:15 43.58639 24.93726 35951 ft 411 kts 303°
2026-05-06 17:15 43.61656 24.87051 35945 ft 411 kts 303°
2026-05-06 17:16 43.64681 24.80344 35933 ft 412 kts 303°
2026-05-06 17:16 43.67681 24.73676 35940 ft 411 kts 303°
2026-05-06 17:17 43.70699 24.66953 35945 ft 412 kts 303°
2026-05-06 17:17 43.73712 24.60228 35940 ft 411 kts 303°
2026-05-06 17:18 43.76987 24.53774 35938 ft 409 kts 313°
2026-05-06 17:18 43.80877 24.48029 35930 ft 409 kts 313°
2026-05-06 17:19 43.84760 24.42271 35940 ft 409 kts 313°
2026-05-06 17:19 43.88503 24.36346 35941 ft 408 kts 310°
2026-05-06 17:20 43.92154 24.30315 35954 ft 409 kts 310°
2026-05-06 17:20 43.95815 24.24277 35942 ft 409 kts 310°
2026-05-06 17:21 43.99484 24.18252 35942 ft 409 kts 310°
2026-05-06 17:21 44.03160 24.12224 35935 ft 409 kts 310°
2026-05-06 17:22 44.06834 24.06190 35946 ft 409 kts 310°
2026-05-06 17:22 44.10511 24.00141 35940 ft 409 kts 310°
2026-05-06 17:23 44.14184 23.94085 35944 ft 410 kts 310°
2026-05-06 17:23 44.17861 23.88008 35954 ft 410 kts 310°
2026-05-06 17:24 44.21512 23.81962 35942 ft 411 kts 309°
2026-05-06 17:24 44.25186 23.75865 35950 ft 411 kts 309°
2026-05-06 17:25 44.28859 23.69757 35945 ft 411 kts 309°
2026-05-06 17:25 44.32530 23.63638 35963 ft 411 kts 309°
2026-05-06 17:26 44.36204 23.57502 35958 ft 412 kts 309°
2026-05-06 17:26 44.39877 23.51354 35953 ft 412 kts 309°
2026-05-06 17:27 44.43551 23.45191 35941 ft 413 kts 309°
2026-05-06 17:27 44.47225 23.39016 35951 ft 413 kts 309°
2026-05-06 17:28 44.50899 23.32826 35943 ft 413 kts 309°
2026-05-06 17:28 44.54572 23.26624 35965 ft 414 kts 309°
2026-05-06 17:29 44.58245 23.20410 35955 ft 414 kts 308°
2026-05-06 17:29 44.61893 23.14223 35945 ft 414 kts 308°
2026-05-06 17:30 44.65560 23.07991 35956 ft 414 kts 308°
2026-05-06 17:30 44.69224 23.01751 35954 ft 414 kts 308°
2026-05-06 17:31 44.72883 22.95506 35955 ft 414 kts 308°
2026-05-06 17:31 44.76536 22.89256 35955 ft 413 kts 308°
2026-05-06 17:32 44.80183 22.83004 35952 ft 413 kts 308°
2026-05-06 17:32 44.83830 22.76738 35962 ft 413 kts 308°
2026-05-06 17:33 44.87469 22.70471 35982 ft 413 kts 308°
2026-05-06 17:33 44.91108 22.64192 35968 ft 414 kts 308°
2026-05-06 17:34 44.94746 22.57900 35969 ft 413 kts 308°
2026-05-06 17:34 44.98370 22.51618 35980 ft 412 kts 308°
2026-05-06 17:35 45.01981 22.45344 35977 ft 411 kts 308°
2026-05-06 17:35 45.05584 22.39070 35977 ft 412 kts 308°
2026-05-06 17:36 45.10999 22.29616 35977 ft 413 kts 307°
2026-05-06 17:36 45.14616 22.23282 35976 ft 414 kts 307°
2026-05-06 17:37 45.18233 22.16936 35969 ft 414 kts 307°
2026-05-06 17:37 45.21847 22.10580 35971 ft 414 kts 307°
2026-05-06 17:38 45.25462 22.04209 35969 ft 415 kts 307°
2026-05-06 17:38 45.29035 21.97896 35961 ft 416 kts 307°
2026-05-06 17:39 45.32656 21.91485 35953 ft 416 kts 307°
2026-05-06 17:39 45.36253 21.85101 35940 ft 416 kts 307°
2026-05-06 17:40 45.39889 21.78635 35936 ft 416 kts 306°
2026-05-06 17:40 45.43498 21.72200 35939 ft 416 kts 306°
2026-05-06 17:41 45.47079 21.65803 35937 ft 416 kts 306°
2026-05-06 17:41 45.50439 21.59786 35931 ft 416 kts 306°
2026-05-06 17:42 45.53940 21.53501 35935 ft 416 kts 306°
2026-05-06 17:42 45.57534 21.47038 35926 ft 416 kts 306°
2026-05-06 17:43 45.61101 21.40608 35928 ft 416 kts 306°
2026-05-06 17:43 45.64685 21.34131 35926 ft 416 kts 306°
2026-05-06 17:44 45.68270 21.27638 35924 ft 416 kts 306°
2026-05-06 17:44 45.71851 21.21138 35913 ft 416 kts 305°
2026-05-06 17:45 45.75435 21.14616 35917 ft 417 kts 305°
2026-05-06 17:45 45.79025 21.08069 35916 ft 418 kts 305°
2026-05-06 17:46 45.82612 21.01511 35918 ft 419 kts 305°
2026-05-06 17:46 45.86205 20.94928 35924 ft 419 kts 305°
2026-05-06 17:47 45.89800 20.88325 35917 ft 420 kts 305°
2026-05-06 17:47 45.93398 20.81703 35916 ft 421 kts 305°
2026-05-06 17:48 45.96993 20.75068 35916 ft 421 kts 304°
2026-05-06 17:48 46.00589 20.68417 35912 ft 421 kts 304°
2026-05-06 17:49 46.03574 20.62884 35924 ft 421 kts 304°
2026-05-06 17:49 46.07164 20.56213 35913 ft 422 kts 304°
2026-05-06 17:50 46.10752 20.49530 35916 ft 422 kts 304°
2026-05-06 17:50 46.14342 20.42830 35902 ft 422 kts 304°
2026-05-06 17:51 46.17678 20.35897 35921 ft 419 kts 298°
2026-05-06 17:51 46.20627 20.28641 35902 ft 419 kts 296°
2026-05-06 17:52 46.23550 20.21357 35901 ft 419 kts 297°
2026-05-06 17:52 46.26495 20.14089 35898 ft 419 kts 297°
2026-05-06 17:53 46.29454 20.06825 35905 ft 419 kts 297°
2026-05-06 17:53 46.32410 19.99566 35905 ft 419 kts 297°
2026-05-06 17:54 46.35360 19.92306 35908 ft 419 kts 297°
2026-05-06 17:54 46.38288 19.85081 35911 ft 418 kts 297°
2026-05-06 17:55 46.41248 19.77756 35911 ft 418 kts 297°
2026-05-06 17:55 46.44180 19.70479 35911 ft 418 kts 297°
2026-05-06 17:56 46.47091 19.63238 35920 ft 418 kts 296°
2026-05-06 17:56 46.50018 19.55934 35913 ft 419 kts 296°
2026-05-06 17:57 46.52942 19.48620 35908 ft 419 kts 296°
2026-05-06 17:57 46.55863 19.41294 35919 ft 419 kts 296°
2026-05-06 17:58 46.58777 19.33967 35932 ft 419 kts 296°
2026-05-06 17:58 46.61689 19.26624 35912 ft 419 kts 296°
2026-05-06 17:59 46.64599 19.19267 35905 ft 419 kts 296°
2026-05-06 17:59 46.67502 19.11909 35903 ft 419 kts 296°
2026-05-06 18:00 46.70401 19.04539 35901 ft 419 kts 296°
2026-05-06 18:00 46.73293 18.97168 35905 ft 420 kts 295°
2026-05-06 18:01 46.76187 18.89771 35901 ft 420 kts 295°
2026-05-06 18:01 46.79081 18.82354 35893 ft 421 kts 295°
2026-05-06 18:02 46.81970 18.74930 35893 ft 421 kts 295°
2026-05-06 18:02 46.84858 18.67488 35893 ft 422 kts 295°
2026-05-06 18:03 46.87749 18.60016 35898 ft 423 kts 295°
2026-05-06 18:03 46.90623 18.52571 35891 ft 423 kts 295°
2026-05-06 18:04 46.93512 18.45065 35890 ft 424 kts 295°
2026-05-06 18:04 46.96416 18.37500 35887 ft 424 kts 295°
2026-05-06 18:05 46.99299 18.29967 35902 ft 424 kts 294°
2026-05-06 18:05 47.02180 18.22417 35890 ft 425 kts 294°
2026-05-06 18:06 47.05057 18.14860 35887 ft 425 kts 294°
2026-05-06 18:06 47.07913 18.07335 35887 ft 425 kts 294°
2026-05-06 18:07 47.10780 17.99761 35875 ft 424 kts 294°
2026-05-06 18:07 47.13639 17.92185 35889 ft 424 kts 294°
2026-05-06 18:08 47.16494 17.84597 35881 ft 424 kts 294°
2026-05-06 18:08 47.19340 17.77014 35859 ft 424 kts 294°
2026-05-06 18:09 47.22181 17.69424 35873 ft 423 kts 294°
2026-05-06 18:09 47.25015 17.61828 35880 ft 423 kts 294°
2026-05-06 18:10 47.27846 17.54219 35864 ft 424 kts 293°
2026-05-06 18:10 47.30673 17.46598 35856 ft 424 kts 293°
2026-05-06 18:11 47.33500 17.38958 35857 ft 424 kts 294°
2026-05-06 18:11 47.36317 17.31321 35855 ft 424 kts 293°
2026-05-06 18:12 47.39134 17.23665 35859 ft 425 kts 293°
2026-05-06 18:12 47.41944 17.16003 35847 ft 425 kts 293°
2026-05-06 18:13 47.44751 17.08328 35840 ft 424 kts 293°
2026-05-06 18:13 47.47533 17.00700 35825 ft 424 kts 293°
2026-05-06 18:14 47.50325 16.93021 35823 ft 424 kts 293°
2026-05-06 18:14 47.53115 16.85325 35819 ft 425 kts 292°
2026-05-06 18:15 47.55896 16.77634 35818 ft 424 kts 292°
2026-05-06 18:15 47.58827 16.70022 35814 ft 426 kts 295°
2026-05-06 18:16 47.61953 16.62556 35805 ft 426 kts 296°
2026-05-06 18:16 47.65084 16.55095 35798 ft 426 kts 296°
2026-05-06 18:17 47.68181 16.47625 35795 ft 425 kts 295°
2026-05-06 18:17 47.71262 16.40132 35790 ft 425 kts 295°
2026-05-06 18:18 47.74331 16.32637 35777 ft 424 kts 295°
2026-05-06 18:18 47.77392 16.25140 35778 ft 424 kts 295°
2026-05-06 18:19 47.80450 16.17629 35781 ft 424 kts 295°
2026-05-06 18:19 47.83504 16.10110 35775 ft 424 kts 295°
2026-05-06 18:20 47.86548 16.02593 35764 ft 424 kts 295°
2026-05-06 18:20 47.89585 15.95076 35774 ft 422 kts 295°
2026-05-06 18:21 47.92610 15.87563 35761 ft 422 kts 295°
2026-05-06 18:21 47.95627 15.80049 35774 ft 422 kts 295°
2026-05-06 18:22 47.98641 15.72524 35770 ft 423 kts 295°
2026-05-06 18:22 48.01656 15.64970 35756 ft 424 kts 295°
2026-05-06 18:23 48.04673 15.57397 35726 ft 424 kts 295°
2026-05-06 18:23 48.07681 15.49823 35761 ft 424 kts 294°
2026-05-06 18:24 48.10681 15.42249 35743 ft 423 kts 294°
2026-05-06 18:24 48.13671 15.34679 35724 ft 422 kts 294°
2026-05-06 18:25 48.16627 15.27173 35717 ft 421 kts 294°
2026-05-06 18:25 48.19589 15.19629 35706 ft 419 kts 294°
2026-05-06 18:26 48.22536 15.12104 35738 ft 418 kts 293°
2026-05-06 18:26 48.25473 15.04579 35706 ft 418 kts 293°
2026-05-06 18:27 48.28405 14.97047 35704 ft 418 kts 293°
2026-05-06 18:27 48.31332 14.89507 35709 ft 418 kts 293°
2026-05-06 18:28 48.34259 14.81947 35703 ft 419 kts 293°
2026-05-06 18:28 48.37186 14.74365 35714 ft 420 kts 292°
2026-05-06 18:29 48.40118 14.66745 35705 ft 422 kts 292°
2026-05-06 18:29 48.43061 14.59077 35706 ft 424 kts 292°
2026-05-06 18:30 48.46006 14.51382 35706 ft 425 kts 292°
2026-05-06 18:30 48.48960 14.43644 35707 ft 426 kts 292°
2026-05-06 18:31 48.51910 14.35891 35701 ft 427 kts 292°
2026-05-06 18:31 48.54865 14.28102 35704 ft 428 kts 292°
2026-05-06 18:32 48.57821 14.20287 35701 ft 429 kts 292°
2026-05-06 18:32 48.60760 14.12493 35692 ft 430 kts 292°
2026-05-06 18:33 48.63730 14.04598 35704 ft 429 kts 292°
2026-05-06 18:33 48.66680 13.96729 35699 ft 431 kts 292°
2026-05-06 18:34 48.69608 13.88893 35701 ft 431 kts 292°
2026-05-06 18:34 48.72552 13.80996 35702 ft 430 kts 292°
2026-05-06 18:35 48.75486 13.73101 35705 ft 430 kts 292°
2026-05-06 18:35 48.78547 13.65283 35710 ft 432 kts 295°
2026-05-06 18:36 48.81787 13.57585 35725 ft 433 kts 296°
2026-05-06 18:36 48.85030 13.49881 35722 ft 433 kts 296°
2026-05-06 18:37 48.87705 13.43459 35722 ft 432 kts 295°
2026-05-06 18:37 48.90903 13.35723 35731 ft 433 kts 295°
2026-05-06 18:38 48.94098 13.27961 35729 ft 433 kts 295°
2026-05-06 18:38 48.97287 13.20186 35737 ft 434 kts 295°
2026-05-06 18:39 49.00479 13.12387 35729 ft 434 kts 295°
2026-05-06 18:40 49.05265 13.00650 35730 ft 435 kts 295°
2026-05-06 18:40 49.08455 12.92799 35736 ft 435 kts 295°
2026-05-06 18:41 49.11640 12.84934 35742 ft 436 kts 295°
2026-05-06 18:41 49.15125 12.77306 35753 ft 440 kts 301°
2026-05-06 18:42 49.18914 12.69938 35746 ft 441 kts 302°
2026-05-06 18:42 49.22699 12.62569 35759 ft 440 kts 301°
2026-05-06 18:43 49.26438 12.55160 35765 ft 440 kts 301°
2026-05-06 18:43 49.30158 12.47708 35765 ft 441 kts 301°
2026-05-06 18:44 49.33872 12.40236 35757 ft 441 kts 301°
2026-05-06 18:44 49.37584 12.32747 35762 ft 440 kts 301°
2026-05-06 18:45 49.41282 12.25267 35765 ft 440 kts 301°
2026-05-06 18:45 49.44972 12.17785 35772 ft 439 kts 301°
2026-05-06 18:46 49.48635 12.10336 35768 ft 439 kts 301°
2026-05-06 18:46 49.52313 12.02835 35761 ft 439 kts 301°
2026-05-06 18:47 49.55981 11.95333 35763 ft 439 kts 301°
2026-05-06 18:47 49.59651 11.87806 35767 ft 440 kts 301°
2026-05-06 18:48 49.63325 11.80247 35764 ft 441 kts 301°
2026-05-06 18:48 49.67006 11.72654 35771 ft 443 kts 301°
2026-05-06 18:49 49.70685 11.65044 35775 ft 444 kts 301°
2026-05-06 18:49 49.74378 11.57383 35783 ft 445 kts 301°
2026-05-06 18:50 49.78074 11.49694 35792 ft 446 kts 301°
2026-05-06 18:50 49.81771 11.41981 35796 ft 446 kts 301°
2026-05-06 18:51 49.85465 11.34252 35805 ft 446 kts 301°
2026-05-06 18:51 49.89152 11.26515 35802 ft 446 kts 301°
2026-05-06 18:52 49.92830 11.18774 35795 ft 445 kts 301°
2026-05-06 18:52 49.96495 11.11038 35790 ft 444 kts 301°
2026-05-06 18:53 50.00147 11.03305 35796 ft 443 kts 301°
2026-05-06 18:53 50.03789 10.95571 35784 ft 443 kts 301°
2026-05-06 18:54 50.07422 10.87833 35801 ft 442 kts 301°
2026-05-06 18:54 50.11049 10.80085 35795 ft 443 kts 301°
2026-05-06 18:55 50.14669 10.72329 35787 ft 443 kts 301°
2026-05-06 18:55 50.18290 10.64548 35794 ft 443 kts 300°
2026-05-06 18:56 50.21910 10.56746 35805 ft 444 kts 301°
2026-05-06 18:56 50.25505 10.48975 35787 ft 445 kts 301°
2026-05-06 18:57 50.29123 10.41132 35800 ft 445 kts 301°
2026-05-06 18:57 50.32741 10.33265 35664 ft 448 kts 300°
2026-05-06 18:57 50.34574 10.29266 35006 ft 453 kts 300°
2026-05-06 18:58 50.36437 10.25289 34434 ft 453 kts 302°
2026-05-06 18:58 50.38451 10.21522 33829 ft 452 kts 308°
2026-05-06 18:58 50.40682 10.18081 33168 ft 447 kts 310°
2026-05-06 18:58 50.42848 10.14647 32490 ft 439 kts 306°
2026-05-06 18:59 50.44646 10.10863 31837 ft 428 kts 298°
2026-05-06 18:59 50.46251 10.06976 31186 ft 422 kts 298°
2026-05-06 18:59 50.47806 10.03106 30567 ft 417 kts 298°
2026-05-06 18:59 50.49341 9.99274 29943 ft 413 kts 298°
2026-05-06 19:00 50.50868 9.95485 29245 ft 408 kts 298°
2026-05-06 19:00 50.52389 9.91740 28532 ft 404 kts 299°
2026-05-06 19:00 50.53896 9.88048 27842 ft 400 kts 299°
2026-05-06 19:00 50.55394 9.84390 27188 ft 396 kts 299°
2026-05-06 19:01 50.56879 9.80766 26531 ft 392 kts 300°
2026-05-06 19:01 50.58348 9.77180 25912 ft 388 kts 300°
2026-05-06 19:01 50.59805 9.73620 25289 ft 385 kts 300°
2026-05-06 19:01 50.61245 9.70096 24676 ft 381 kts 300°
2026-05-06 19:02 50.62670 9.66605 24086 ft 377 kts 300°
2026-05-06 19:02 50.64079 9.63149 23508 ft 373 kts 300°
2026-05-06 19:02 50.65455 9.59772 23275 ft 359 kts 300°
2026-05-06 19:02 50.66783 9.56511 22978 ft 348 kts 300°
2026-05-06 19:03 50.68072 9.53339 22690 ft 340 kts 300°
2026-05-06 19:03 50.69352 9.50180 22415 ft 343 kts 300°
2026-05-06 19:03 50.70627 9.47028 22089 ft 339 kts 300°
2026-05-06 19:03 50.71890 9.43904 21710 ft 337 kts 300°
2026-05-06 19:04 50.73144 9.40799 21358 ft 334 kts 300°
2026-05-06 19:04 50.74389 9.37714 21010 ft 332 kts 299°
2026-05-06 19:04 50.75624 9.34649 20647 ft 330 kts 299°
2026-05-06 19:04 50.76852 9.31601 20302 ft 328 kts 299°
2026-05-06 19:05 50.78074 9.28563 19943 ft 327 kts 299°
2026-05-06 19:05 50.79288 9.25539 19584 ft 325 kts 299°
2026-05-06 19:05 50.80496 9.22529 19235 ft 324 kts 299°
2026-05-06 19:05 50.81699 9.19527 18893 ft 322 kts 299°
2026-05-06 19:06 50.82894 9.16542 18545 ft 321 kts 299°
2026-05-06 19:06 50.84089 9.13554 18195 ft 321 kts 299°
2026-05-06 19:06 50.85279 9.10572 17799 ft 320 kts 299°
2026-05-06 19:06 50.86463 9.07604 17424 ft 318 kts 299°
2026-05-06 19:07 50.87642 9.04647 17053 ft 317 kts 299°
2026-05-06 19:07 50.88815 9.01700 16697 ft 315 kts 299°
2026-05-06 19:07 50.89978 8.98774 16347 ft 314 kts 299°
2026-05-06 19:07 50.91138 8.95853 15994 ft 312 kts 299°
2026-05-06 19:08 50.92289 8.92951 15649 ft 310 kts 299°
2026-05-06 19:08 50.93433 8.90064 15306 ft 309 kts 299°
2026-05-06 19:08 50.94557 8.87225 14971 ft 307 kts 299°
2026-05-06 19:08 50.95690 8.84358 14638 ft 306 kts 299°
2026-05-06 19:09 50.96818 8.81502 14297 ft 305 kts 299°
2026-05-06 19:09 50.97943 8.78652 13961 ft 304 kts 299°
2026-05-06 19:09 50.99064 8.75807 13621 ft 303 kts 299°
2026-05-06 19:09 51.00181 8.72971 13246 ft 303 kts 299°
2026-05-06 19:10 51.01161 8.70044 12878 ft 298 kts 285°
2026-05-06 19:10 51.01442 8.66862 12754 ft 287 kts 266°
2026-05-06 19:10 51.01190 8.63732 12630 ft 289 kts 259°
2026-05-06 19:10 51.00824 8.60550 12518 ft 296 kts 258°
2026-05-06 19:11 51.00438 8.57311 12398 ft 299 kts 258°
2026-05-06 19:11 51.00060 8.54083 12267 ft 296 kts 258°
2026-05-06 19:11 50.99689 8.50874 12160 ft 294 kts 258°
2026-05-06 19:11 50.99327 8.47694 12031 ft 293 kts 258°
2026-05-06 19:12 50.98968 8.44522 11921 ft 291 kts 258°
2026-05-06 19:12 50.98611 8.41362 11799 ft 290 kts 258°
2026-05-06 19:12 50.98256 8.38208 11692 ft 290 kts 258°
2026-05-06 19:12 50.97900 8.35057 11576 ft 291 kts 258°
2026-05-06 19:13 50.97541 8.31888 11465 ft 292 kts 258°
2026-05-06 19:13 50.97176 8.28723 11354 ft 291 kts 256°
2026-05-06 19:13 50.96477 8.25754 11232 ft 285 kts 242°
2026-05-06 19:13 50.95554 8.22993 11111 ft 281 kts 241°
2026-05-06 19:14 50.94632 8.20277 11005 ft 278 kts 241°
2026-05-06 19:14 50.93724 8.17587 10901 ft 275 kts 241°
2026-05-06 19:14 50.92834 8.14927 10787 ft 273 kts 241°
2026-05-06 19:14 50.91944 8.12253 10684 ft 276 kts 241°
2026-05-06 19:15 50.91044 8.09540 10585 ft 280 kts 242°
2026-05-06 19:15 50.90141 8.06808 10464 ft 279 kts 241°
2026-05-06 19:15 50.89243 8.04090 10355 ft 278 kts 241°
2026-05-06 19:15 50.88346 8.01376 10245 ft 278 kts 241°
2026-05-06 19:16 50.87442 7.98646 10135 ft 283 kts 244°
2026-05-06 19:16 50.86519 7.95857 10019 ft 288 kts 244°
2026-05-06 19:16 50.85591 7.93053 9917 ft 287 kts 243°
2026-05-06 19:16 50.84661 7.90250 9713 ft 289 kts 243°
2026-05-06 19:17 50.83731 7.87457 9453 ft 292 kts 243°
2026-05-06 19:17 50.82774 7.84593 9207 ft 288 kts 244°
2026-05-06 19:17 50.81843 7.81811 8959 ft 284 kts 243°
2026-05-06 19:17 50.80938 7.79107 8607 ft 283 kts 243°
2026-05-06 19:18 50.80009 7.76331 8135 ft 287 kts 243°
2026-05-06 19:18 50.79055 7.73487 7621 ft 291 kts 243°
2026-05-06 19:18 50.78115 7.70684 7105 ft 291 kts 244°
2026-05-06 19:18 50.77175 7.67888 6726 ft 283 kts 244°
2026-05-06 19:19 50.76266 7.65189 6428 ft 273 kts 244°
2026-05-06 19:19 50.75387 7.62581 6241 ft 266 kts 243°
2026-05-06 19:19 50.74520 7.60011 5989 ft 265 kts 244°
2026-05-06 19:19 50.73658 7.57441 5729 ft 265 kts 243°
2026-05-06 19:20 50.72858 7.54829 5455 ft 264 kts 247°
2026-05-06 19:20 50.72086 7.52193 5191 ft 265 kts 247°
2026-05-06 19:20 50.71324 7.49562 4928 ft 262 kts 247°
2026-05-06 19:20 50.70570 7.46974 4672 ft 256 kts 247°
2026-05-06 19:21 50.69828 7.44478 4406 ft 246 kts 247°
2026-05-06 19:21 50.69321 7.42009 4204 ft 231 kts 272°
2026-05-06 19:21 50.69800 7.39698 4045 ft 223 kts 310°
2026-05-06 19:21 50.70879 7.37946 3859 ft 224 kts 317°
2026-05-06 19:22 50.72008 7.36250 3636 ft 224 kts 318°
2026-05-06 19:22 50.73149 7.34574 3393 ft 224 kts 319°
2026-05-06 19:22 50.74283 7.32922 3161 ft 218 kts 319°
2026-05-06 19:22 50.75361 7.31351 3037 ft 203 kts 319°
2026-05-06 19:23 50.76354 7.29903 2834 ft 187 kts 319°
2026-05-06 19:23 50.77286 7.28548 2584 ft 177 kts 319°
2026-05-06 19:23 50.78158 7.27278 2354 ft 165 kts 319°
2026-05-06 19:23 50.78975 7.26089 2124 ft 156 kts 319°
2026-05-06 19:24 50.79774 7.24927 1943 ft 155 kts 319°
2026-05-06 19:24 50.80556 7.23789 1718 ft 148 kts 319°
2026-05-06 19:24 50.81296 7.22712 1504 ft 142 kts 319°
2026-05-06 19:24 50.82019 7.21660 1311 ft 141 kts 318°
2026-05-06 19:25 50.82505 7.20943 1169 ft 142 kts 317°
2026-05-06 19:25 50.83228 7.19884 962 ft 141 kts 318°
2026-05-06 19:25 50.83948 7.18843 798 ft 140 kts 318°
2026-05-06 19:25 50.84672 7.17794 619 ft 141 kts 318°
2026-05-06 19:26 50.85380 7.16768 405 ft 139 kts 318°
2026-05-06 19:26 50.86073 7.15764 298 ft 126 kts 319°
2026-05-06 19:26 50.86638 7.14953 272 ft 88 kts 317°
2026-05-06 19:26 50.86991 7.14438 255 ft 55 kts 317°
2026-05-06 19:27 50.87217 7.14101 245 ft 42 kts 311°
2026-05-06 19:27 50.87314 7.13759 238 ft 28 kts 280°
2026-05-06 19:27 50.87339 7.13525 233 ft 18 kts 284°
2026-05-06 19:27 50.87414 7.13367 231 ft 16 kts 318°
2026-05-06 19:28 50.87485 7.13265 232 ft 12 kts 317°
2026-05-06 19:28 50.87548 7.13172 232 ft 13 kts 317°
2026-05-06 19:28 50.87624 7.13062 232 ft 16 kts 317°
2026-05-06 19:28 50.87703 7.12948 232 ft 14 kts 317°
2026-05-06 19:29 50.87744 7.12889 232 ft 6 kts 317°
2026-05-06 19:29 50.87766 7.12856 231 ft 4 kts 317°
2026-05-06 19:29 50.87784 7.12821 231 ft 5 kts 299°
2026-05-06 19:29 50.87786 7.12747 231 ft 9 kts 259°
2026-05-06 19:30 50.87813 7.12639 231 ft 13 kts 322°
2026-05-06 19:30 50.87896 7.12615 231 ft 12 kts 359°
2026-05-06 19:30 50.87967 7.12544 231 ft 12 kts 317°
2026-05-06 19:30 50.88028 7.12454 231 ft 12 kts 317°
2026-05-06 19:31 50.88084 7.12355 231 ft 12 kts 306°
2026-05-06 19:31 50.88131 7.12251 231 ft 12 kts 306°
2026-05-06 19:31 50.88208 7.12082 231 ft 3 kts 306°
2026-05-06 19:32 50.88221 7.12053 231 ft 3 kts 305°
2026-05-06 19:32 50.88227 7.12020 232 ft 3 kts 263°
2026-05-06 19:32 50.88210 7.11990 233 ft 5 kts 219°
2026-05-06 19:32 50.88188 7.11966 231 ft 2 kts 215°
2026-05-06 19:33 50.88179 7.11955 231 ft 1 kts 215°
2026-05-06 19:33 50.88174 7.11950 233 ft 1 kts 215°
2026-05-06 19:33 50.88171 7.11947 232 ft 1 kts 215°
2026-05-06 19:33 50.88171 7.11946 232 ft 0 kts 215°